SPOT 6

Last updated on Thu Jul 03 2025 00:02:29 GMT+0000 (Coordinated Universal Time)

1 38755U 12047A 25183.60520900 .00000235 00000+0 60261-4 0 9991 2 38755 98.1766 251.1865 0001562 104.4037 255.7335 14.58574117682096
UTC large
Height (km)
Speed (km/s)
/
Latitude / Longitude
Inclination (degrees)
Orbital Period (minutes)
Azimuth
Elevation
Range (km)
Doppler Factor

Next 0 passes for location: London (51.5072 / 0.1276)

Sorry there are no passes over London.